Flag for Russia Weather past 2 weeks in Murmansk, Russia

30 °F

Snow flurries. Passing clouds.

Feels Like: 24 °F
Forecast: 34 / 37 °F
Wind: 6 mph from Southwest

Location: Murmansk Airport

Current Time: Nov 25, 2015 at 7:19:27 AM

Latest Report: Nov 25, 2015 at 6:00 AM

Visibility: 5 mi

Pressure: 29.33 "Hg

Humidity: 86%

Dew point: 27 °F

Location of MurmanskLocation

Historic Weather in Murmansk — Graph


Murmansk temperature yesterday

Maximum temperature yesterday: 32 °F (at 7:30 PM)
Minimum temperature yesterday: 10 °F (at 1:00 AM)
Average temperature yesterday: 25 °F

Past Weeks' High & Low Weather Summary

High32 °F (Nov 14, 12:30 PM)93% (Nov 13, 5:00 PM)30.01 "Hg (Nov 13, 5:00 PM)
Low-4 °F (Nov 12, 6:00 AM)69% (Nov 14, 7:30 PM)29.33 "Hg (Nov 19, 4:30 PM)
Average22 °F81%29.61 "Hg
* Reported Nov 10 5:00 AM — Nov 25 5:30 AM, Murmansk, Weather by CustomWeather, © 2015

Note: Actual official high and low records may vary slightly from our data, if they occured in-between our weather recording intervals... More about our weather records


Murmansk weather history for previous 24 hours

Time TempWeatherWind HumidityBarometerVisibility
5:30 AM
Wed, Nov 25
30 °FSnow flurries. Passing clouds.6 mph86%29.33 "Hg6 mi
5:00 AM32 °FPassing clouds.3 mph80%29.33 "HgN/A
4:30 AM32 °FPassing clouds.6 mph80%29.36 "HgN/A
4:00 AM32 °FPassing clouds.6 mph75%29.36 "HgN/A
3:30 AM32 °FPassing clouds.6 mph75%29.36 "HgN/A
3:00 AM32 °FPassing clouds.6 mph75%29.36 "HgN/A
2:30 AM32 °FPassing clouds.8 mph75%29.36 "HgN/A
2:00 AM32 °FPassing clouds.6 mph75%29.36 "HgN/A
1:30 AM32 °FSnow flurries. Passing clouds.6 mph80%29.36 "HgN/A
1:00 AM30 °FSnow flurries. Passing clouds.8 mph86%29.36 "Hg6 mi
12:30 AM30 °FSnow flurries. Passing clouds.6 mph86%29.39 "Hg4 mi
12:00 AM32 °FSnow flurries. Passing clouds.3 mph75%29.39 "Hg6 mi
11:30 PM
Tue, Nov 24
32 °FPassing clouds.3 mph75%29.39 "HgN/A
11:00 PM32 °FPassing clouds.6 mph75%29.39 "HgN/A
10:30 PM32 °FPassing clouds.6 mph75%29.39 "HgN/A
10:00 PM32 °FPassing clouds.6 mph75%29.39 "HgN/A
9:30 PM32 °FPassing clouds.8 mph75%29.39 "HgN/A
9:00 PM32 °FPassing clouds.6 mph75%29.42 "HgN/A
8:30 PM32 °FPassing clouds.8 mph75%29.42 "HgN/A
8:00 PM32 °FPassing clouds.8 mph75%29.42 "HgN/A
7:30 PM32 °FPassing clouds.6 mph75%29.42 "HgN/A
7:00 PM30 °FPassing clouds.8 mph80%29.45 "HgN/A
6:30 PM30 °FPassing clouds.8 mph80%29.45 "HgN/A
6:00 PM28 °FPassing clouds.8 mph86%29.45 "HgN/A
5:30 PM28 °FPassing clouds.6 mph80%29.45 "HgN/A
5:00 PM27 °FPassing clouds.6 mph86%29.47 "HgN/A
4:30 PM27 °FPassing clouds.6 mph80%29.47 "HgN/A
4:00 PM25 °FPassing clouds.6 mph86%29.47 "HgN/A
3:30 PM23 °FPassing clouds.6 mph86%29.47 "HgN/A
3:00 PM19 °FPassing clouds.3 mph86%29.47 "HgN/A
2:00 PM23 °FScattered clouds.3 mph86%29.50 "HgN/A
1:30 PM23 °FScattered clouds.3 mph80%29.50 "HgN/A
1:00 PM25 °FScattered clouds.6 mph74%29.50 "HgN/A
12:30 PM25 °FScattered clouds.6 mph74%29.50 "HgN/A
12:00 PM25 °FPassing clouds.6 mph74%29.50 "HgN/A
11:30 AM25 °FPassing clouds.6 mph74%29.50 "HgN/A
11:00 AM25 °FPassing clouds.6 mph74%29.50 "HgN/A
10:30 AM25 °FPassing clouds.10 mph74%29.50 "HgN/A
10:00 AM25 °FPassing clouds.10 mph74%29.50 "HgN/A
9:00 AM23 °FPassing clouds.8 mph80%29.50 "HgN/A
8:30 AM23 °FClear.8 mph80%29.50 "Hg10 mi
8:00 AM21 °FClear.6 mph80%29.50 "Hg10 mi
7:30 AM21 °FClear.6 mph80%29.50 "Hg10 mi
7:00 AM21 °FClear.3 mph80%29.53 "Hg10 mi
Weather by CustomWeather, © 2015

See weather overviewHow to use our weather pages